Location: Newark
(42.7133°N, 87.7910°W)
Time: 12:30:57
(UTC+00:00)

SR - Pass Details

Date: 30 October 2019
Orbit: 574 x 882 km, 66.7° (Epoch: 16 November)

Event Time Altitude Azimuth Distance (km) Brightness Sun altitude
Exits shadow 08:56:58 23° 26° (NNE) 1,789 ? -37.9°
Maximum altitude 08:58:07 24° 43° (NE) 1,730 ? -37.7°
Drops below altitude 10° 09:02:52 10° 97° (E) 2,527 ? -36.9°
Sets 09:05:49 0° 110° (ESE) 3,441 ? -36.4°
